Weather History for Meacham, OR

Change the Weather History Date:

Thursday, February 14, 2013

  Actual Average Record
Temperature  
Mean Temperature 33 °F -  
Max Temperature 42 °F 37 °F 48 °F (2011)
Min Temperature 24 °F 19 °F 3 °F (2002)
Degree Days  
Heating Degree Days 32    
Moisture  
Dew Point 27 °F    
Average Humidity 80    
Maximum Humidity 93    
Minimum Humidity 57    
Precipitation  
Precipitation 0.00 in - - ()
Sea Level Pressure  
Sea Level Pressure 30.47 in    
Wind  
Wind Speed 0 mph (North)    
Max Wind Speed 4 mph    
Max Gust Speed -    
Visibility 10 miles    
Events      
Averages and records for this station are not official NWS values.
T = Trace of Precipitation, MM = Missing Value Source: NWS Daily Summary

Daily Weather History Graph

Daily Weather History Graph

Search for Another Location

Airport:

Trip Planner

Search our weather history database for the weather conditions in past years. The results will help you decide how hot, cold, wet, or windy it might be!

Date:

Astronomy

Feb. 14, 2013 Rise Set
Actual Time 6:56 AM PST 5:19 PM PST
Civil Twilight 6:25 AM PST 5:50 PM PST
Nautical Twilight 5:51 AM PST 6:25 PM PST
Astronomical Twilight 5:17 AM PST 6:59 PM PST
Moon 8:44 AM PST (2/14) 10:46 PM PST (2/14)
Length of Visible Light 11h 24m
Length of Day
10h 23m
Waxing Crescent, 22% of the Moon is Illuminated
Feb 14
Waxing Crescent
Feb 17
First Quarter
Feb 25
Full
Mar 4
Last Quarter
Mar 11
New

Hourly Weather History & Observations

Time (PST) Temp. Windchill Dew Point Humidity Pressure Visibility Wind Dir Wind Speed Gust Speed Precip Events Conditions
12:56 AM 33.1 °F - 28.0 °F 82% 30.41 in 10.0 mi Calm Calm - N/A   Overcast
1:56 AM 32.0 °F - 27.0 °F 82% 30.43 in 10.0 mi Calm Calm - N/A   Mostly Cloudy
2:17 AM 32.0 °F - 26.6 °F 80% 30.37 in 10.0 mi Calm Calm - N/A   Partly Cloudy
2:56 AM 28.0 °F - 26.1 °F 92% 30.45 in 10.0 mi Calm Calm - N/A   Scattered Clouds
3:05 AM 28.4 °F - 26.6 °F 93% 30.38 in 10.0 mi Calm Calm - N/A   Mostly Cloudy
3:28 AM 28.4 °F - 24.8 °F 86% 30.37 in 10.0 mi Calm Calm - N/A   Scattered Clouds
3:56 AM 27.0 °F - 25.0 °F 92% 30.45 in 10.0 mi Calm Calm - N/A   Scattered Clouds
4:56 AM 26.1 °F - 24.1 °F 92% 30.46 in 10.0 mi Calm Calm - N/A   Partly Cloudy
5:21 AM 26.6 °F - 24.8 °F 93% 30.38 in 10.0 mi Calm Calm - N/A   Mostly Cloudy
5:56 AM 26.1 °F - 24.1 °F 92% 30.48 in 10.0 mi Calm Calm - N/A   Mostly Cloudy
6:30 AM 24.8 °F - 21.2 °F 86% 30.39 in 10.0 mi Calm Calm - N/A   Scattered Clouds
6:56 AM 25.0 °F - 23.0 °F 92% 30.48 in 10.0 mi Calm Calm - N/A   Overcast
7:56 AM 26.1 °F - 23.0 °F 88% 30.50 in 10.0 mi Calm Calm - N/A   Partly Cloudy
8:56 AM 30.0 °F - 28.0 °F 92% 30.50 in 10.0 mi Calm Calm - N/A   Mostly Cloudy
9:56 AM 36.0 °F - 28.0 °F 73% 30.49 in 10.0 mi Calm Calm - N/A   Overcast
10:56 AM 39.0 °F - 27.0 °F 62% 30.51 in 10.0 mi Calm Calm - N/A   Overcast
11:56 AM 39.9 °F 37.8 °F 27.0 °F 60% 30.50 in 10.0 mi Variable 3.5 mph - N/A   Overcast
12:56 PM 41.0 °F - 28.0 °F 60% 30.48 in 10.0 mi Calm Calm - N/A   Overcast
1:56 PM 42.1 °F 40.2 °F 28.9 °F 60% 30.48 in 10.0 mi Variable 3.5 mph - N/A   Overcast
2:47 PM 42.8 °F - 28.4 °F 57% 30.42 in 10.0 mi Calm Calm - N/A   Overcast
2:56 PM 42.1 °F - 30.0 °F 62% 30.49 in 10.0 mi Calm Calm - N/A   Overcast
3:56 PM 42.1 °F - 30.9 °F 65% 30.49 in 10.0 mi Calm Calm - N/A   Overcast
4:11 PM 42.8 °F - 30.2 °F 61% 30.42 in 10.0 mi Calm Calm - N/A   Overcast
4:56 PM 41.0 °F - 30.9 °F 67% 30.50 in 10.0 mi Calm Calm - N/A   Overcast
5:56 PM 37.9 °F - 30.9 °F 76% 30.51 in 10.0 mi Calm Calm - N/A   Overcast
6:56 PM 34.0 °F - 28.9 °F 82% 30.52 in 10.0 mi Calm Calm - N/A   Overcast
7:30 PM 32.0 °F - 28.4 °F 87% 30.42 in 10.0 mi Calm Calm - N/A   Scattered Clouds
7:56 PM 30.9 °F - 28.0 °F 89% 30.53 in 10.0 mi Calm Calm - N/A   Clear
8:56 PM 28.0 °F - 26.1 °F 92% 30.53 in 10.0 mi Calm Calm - N/A   Clear
9:56 PM 28.0 °F - 26.1 °F 92% 30.54 in 10.0 mi Calm Calm - N/A   Mostly Cloudy
10:56 PM 28.9 °F - 27.0 °F 92% 30.54 in 10.0 mi Calm Calm - N/A   Overcast
11:56 PM 28.9 °F - 27.0 °F 92% 30.54 in 10.0 mi Calm Calm - N/A   Scattered Clouds